This is the latest recevied weather packets stored in our database for station/object OE6JUE. If no packets are shown the sender has not sent any weather packets the latest 10 day(s).
| Time | Temp. | Humidity | Pressure | Rain* | Wind** | Luminosity | Snow |
|---|---|---|---|---|---|---|---|
| 1788689941 | 24.44° C | 50% | 1027 hPa | 0 mm | - | - | - |
| 1788689641 | 24.44° C | 50% | 1027.1 hPa | 0 mm | - | - | - |
| 1788689341 | 24.44° C | 50% | 1027.1 hPa | 0 mm | - | - | - |
| 1788689041 | 24.44° C | 50% | 1027.4 hPa | 0 mm | - | - | - |
| 1788688741 | 24.44° C | 51% | 1027.2 hPa | 0 mm | - | - | - |
| 1788688442 | 23.89° C | 51% | 1027.4 hPa | 0 mm | - | - | - |
| 1788688141 | 23.89° C | 52% | 1027.5 hPa | 0 mm | - | - | - |
| 1788687841 | 23.33° C | 53% | 1027.6 hPa | 0 mm | - | - | - |
| 1788687541 | 23.33° C | 52% | 1027.5 hPa | 0 mm | - | - | - |
| 1788687241 | 23.33° C | 52% | 1027.6 hPa | 0 mm | - | - | - |
| 1788686941 | 23.33° C | 52% | 1027.6 hPa | 0 mm | - | - | - |
| 1788686641 | 23.33° C | 52% | 1027.6 hPa | 0 mm | - | - | - |
| 1788686341 | 23.33° C | 52% | 1027.7 hPa | 0 mm | - | - | - |
| 1788686041 | 23.33° C | 52% | 1027.6 hPa | 0 mm | - | - | - |
| 1788685741 | 23.33° C | 53% | 1027.7 hPa | 0 mm | - | - | - |
| 1788685441 | 22.78° C | 52% | 1027.7 hPa | 0 mm | - | - | - |
| 1788685141 | 22.78° C | 52% | 1027.7 hPa | 0 mm | - | - | - |
| 1788684841 | 23.33° C | 55% | 1027.7 hPa | 0 mm | - | - | - |
| 1788684541 | 22.78° C | 55% | 1027.7 hPa | 0 mm | - | - | - |
| 1788684241 | 22.78° C | 54% | 1027.7 hPa | 0 mm | - | - | - |
| 1788683941 | 22.78° C | 60% | 1027.7 hPa | 0 mm | - | - | - |
| 1788683641 | 22.22° C | 66% | 1027.8 hPa | 0 mm | - | - | - |
| 1788683341 | 21.67° C | 69% | 1027.8 hPa | 0 mm | - | - | - |
| 1788683041 | 21.67° C | 78% | 1027.7 hPa | 0 mm | - | - | - |
| 1788682741 | 21.11° C | 81% | 1027.7 hPa | 0 mm | - | - | - |
* Rain latest hour (hover to see other rain measurements)
** Current wind speed in m/s (hover to see current wind gust speed)